Regional Weather Roundup
Issued by NWS

Home | Current Version | Previous Version | Graphics & Text | Print | Product List | Glossary On
Versions: 1 2 3 4 5 6 7 8 9 10 11 12 13 14 15 16 17 18 19 20 21 22 23 24 25 26 27 28 29 30 31 32 33 34 35 36 37 38 39 40 41 42 43 44 45 46 47 48 49 50
000
ASUS43 KDMX 250904
RWRIA

WEATHER ROUNDUP FOR IOWA
NATIONAL WEATHER SERVICE DES MOINES IA
  ISSUED BY NWS QUAD CITIES IA IL
300 AM CST SUN JAN 25 2015

NOTE: "FAIR" INDICATES FEW OR NO CLOUDS BELOW 12,000 FEET WITH NO
SIGNIFICANT WEATHER AND/OR OBSTRUCTIONS TO VISIBILITY.

* - THESE STATIONS ARE NOT NWS STATIONS...THUS NOT UNDER NWS
QUALITY CONTROL.  THEY ALSO DO NOT REPORT WEATHER SUCH
AS PRECIPITATION OR FOG.

IAZ001>003-012>014-020>022-031>034-043>046-251000-
   NORTHWEST IOWA

CITY           SKY/WX    TMP DP  RH WIND       PRES   REMARKS
CARROLL *      LGT RAIN  36  36 100 N15       29.60R WCI  26
CHEROKEE *     LGT SNOW  33  33 100 N12       29.67R WCI  24
DENNISON *     LGT RAIN  36  36 100 N12G18    29.61R WCI  27
LE MARS *      LGT SNOW  34  34 100 N16G22    29.72R WCI  23
ORANGE CITY *  LGT SNOW  34  32  93 N13       29.70R WCI  25
SHELDON *      LGT SNOW  32  32 100 N15       29.69R WCI  22
SIOUX CITY     LGT SNOW  34  32  92 NW18      29.72R FOG     WCI  23
SPENCER        LGT SNOW  34  32  92 N13       29.67R FOG     WCI  25
STORM LAKE *   LGT SNOW  32  32 100 N14       29.64R VSB 1   WCI  22
$$

IAZ055>058-069>071-079>083-090>094-251000-
   SOUTHWEST IOWA

CITY           SKY/WX    TMP DP  RH WIND       PRES   REMARKS
ATLANTIC *     LGT RAIN  39  39 100 NW15G23   29.59R WCI  31
AUDUBON *      LGT RAIN  37  34  87 N13       29.60R WCI  29
CLARINDA *     CLOUDY    43  39  87 NW17G24   29.62R WCI  35
COUNCIL BLFS * LGT RAIN  39  39 100 NW21G30   29.62R WCI  29
CRESTON *      MIX PCPN  41  41 100 NW14G21   29.56R WCI  33
HARLAN *       LGT RAIN  39  39 100 NW16G23   29.63R WCI  30
LAMONI         CLOUDY    41  39  93 W12       29.55S WCI  34
RED OAK *      CLOUDY    41  39  93 NW15G23   29.61R WCI  33
SHENANDOAH *   CLOUDY    43  37  81 NW12G17   29.63R WCI  37
$$

IAZ047>049-059>061-072>074-084-251000-
   CENTRAL IOWA

CITY           SKY/WX    TMP DP  RH WIND       PRES   REMARKS
AMES           MIX PCPN  37  34  89 N8        29.57R FOG     WCI  31
ANKENY *       CLOUDY    39  39 100 N6        29.57R WCI  35
BOONE *        LGT RAIN  36  36 100 N10       29.56R WCI  28
CHARITON *     CLOUDY    39  37  93 S3        29.54F
DES MOINES     CLOUDY    41  38  89 N6        29.56R WCI  37
GRINNELL *     LGT RAIN  37  35  94 CALM      29.56S
KNOXVILLE *    MIX PCPN  39  37  93 S3        29.53F
MARSHALLTOWN   LGT RAIN  36  34  92 NE6       29.56R WCI  31
NEWTON *       MIX PCPN  37  36  93 NE5       29.56R WCI  34
PELLA *        LGT RAIN  38  37  95 CALM      29.57S
PERRY *        DRIZZLE   38  37  97 N8        29.57R WCI  32
$$

IAZ004>006-015-016-023>025-035-036-251000-
   NORTH CENTRAL IOWA

CITY           SKY/WX    TMP DP  RH WIND       PRES   REMARKS
ALGONA *       CLOUDY    34  34 100 N14       29.63R WCI  24
CLARION *      CLOUDY    34  34 100 N7        29.61R WCI  28
ESTHERVILLE    LGT SNOW  32  32 100 N16       29.66R VSB 1   WCI  21
FORT DODGE *   CLOUDY    34  30  86 N6        29.61R WCI  29
MASON CITY     CLOUDY    34  33  96 NE12      29.63R WCI  25
FOREST CITY *  DRIZZLE   34  32  93 NE10      29.63R WCI  26
WEBSTER CITY * CLOUDY    34  34 100 N9        29.58R WCI  26
IOWA FALLS *   RAIN      35  33  91 N5        29.59R WCI  31
$$

IAZ007>011-017>019-026>030-037>042-050>054-066-251000-
   NORTHEAST IOWA

CITY           SKY/WX    TMP DP  RH WIND       PRES   REMARKS
CEDAR RAPIDS   CLOUDY    35  32  88 E3        29.57R
CHARLES CITY * CLOUDY    36  36 100 NE10      29.61R WCI  28
CLINTON *      CLOUDY    32  30  93 E12       29.62S WCI  23
DECORAH *      CLOUDY    34  32  93 NE7       29.63R WCI  28
DUBUQUE        CLOUDY    33  31  92 NE14      29.61R FOG     WCI  23
MONTICELLO *   CLOUDY    36  36 100 E7        29.59S WCI  30
OELWEIN *      CLOUDY    34  34 100 NE14      29.59S WCI  24
WATERLOO       CLOUDY    34  33  96 E7        29.58R WCI  28
$$

IAZ064-065-067-068-078-251000-
   EAST CENTRAL IOWA

CITY           SKY/WX    TMP DP  RH WIND       PRES   REMARKS
DAVENPORT      CLOUDY    35  31  85 E7        29.59S WCI  29
IOWA CITY      LGT RAIN  35  32  88 NE3       29.59R
MT. PLEASANT * LGT RAIN  38  38 100 CALM      29.58F
MUSCATINE *    CLOUDY    34  32  93 CALM      29.59R
QUAD CITIES    CLOUDY    33  31  92 E3        29.58F
$$

IAZ062-063-075>077-085>089-095>099-251000-
   SOUTHEAST IOWA

CITY           SKY/WX    TMP DP  RH WIND       PRES   REMARKS
BURLINGTON     LGT RAIN  41  38  89 NW7       29.57F WCI  36
FAIRFIELD *    LGT RAIN  37  37 100 SE3       29.57S
FORT MADISON * DRIZZLE   43  39  87 CALM      29.58F
KEOKUK *       CLOUDY    39  37  93 CALM      29.57F
OSKALOOSA *    LGT RAIN  38  37  96 CALM      29.57S
OTTUMWA        LGT RAIN  38  38 100 CALM      29.56S
WASHINGTON *   CLOUDY    39  39 100 W7        29.57F WCI  34
$$

ABBREVIATIONS USED IN REMARKS
   TC - TEMPERATURES IN CELSIUS
  WCI - WIND CHILL INDEX
   HX - HEAT INDEX
  VSB - VISIBILITY
$$


USA.gov is the U.S. government's official web portal to all federal, state and local government web resources and services.